When you browse on this site, cookies collect data to enhance your experience and personalize the content and advertising you see.
Visit our Privacy Policy to learn more. By continuing to use the site, you agree to this use of cookies and data.
  • In Switzerland
  • List of Countries
  • For 7 days
  • Water Temperature
  • Satellite Maps
  • Weather Map
  • Weather Widgets
  • user-avatar
    Login

    Hourly Weather Okolnik

    Today, 24 January, Thursday

    Time Temperature Precipitation Wind Pressure Humidity
    00:00 -12°C° 0 mm 3 mps 742 mmHg 91%
    01:00 -12°C° 0 mm 3 mps 743 mmHg 90%
    02:00 -12°C° 0 mm 3 mps 743 mmHg 90%
    03:00 -12°C° 0 mm 3 mps 743 mmHg 90%
    04:00 -12°C° 0 mm 3 mps 743 mmHg 91%
    05:00 -12°C° 0 mm 3 mps 743 mmHg 91%
    06:00 -13°C° 0 mm 3 mps 743 mmHg 91%
    07:00 -13°C° 0 mm 3 mps 744 mmHg 92%
    08:00 -13°C° 0 mm 3 mps 744 mmHg 92%
    09:00 -12°C° 0 mm 3 mps 744 mmHg 91%
    10:00 -12°C° 0 mm 3 mps 745 mmHg 90%
    11:00 -12°C° 0 mm 3 mps 745 mmHg 89%
    12:00 -10°C° 0 mm 3 mps 745 mmHg 88%
    13:00 -10°C° 0 mm 3 mps 745 mmHg 87%
    14:00 -9°C° 0 mm 3 mps 745 mmHg 86%
    15:00 -10°C° 0 mm 4 mps 745 mmHg 87%
    16:00 -11°C° 0 mm 4 mps 746 mmHg 87%
    17:00 -11°C° 0 mm 4 mps 746 mmHg 88%
    18:00 -11°C° 0 mm 4 mps 746 mmHg 89%
    19:00 -12°C° 0 mm 4 mps 746 mmHg 90%
    20:00 -12°C° 0 mm 4 mps 746 mmHg 90%
    21:00 -12°C° 0 mm 4 mps 746 mmHg 90%
    22:00 -12°C° 0 mm 4 mps 747 mmHg 90%
    23:00 -14°C° 0 mm 4 mps 747 mmHg 90%

    Tomorrow, 25 January, Friday

    Time Temperature Precipitation Wind Pressure Humidity
    00:00 -14°C° 0 mm 4 mps 747 mmHg 90%
    01:00 -14°C° 0 mm 4 mps 747 mmHg 90%
    02:00 -14°C° 0 mm 4 mps 747 mmHg 90%
    03:00 -14°C° 0 mm 4 mps 746 mmHg 90%
    04:00 -14°C° 0 mm 5 mps 746 mmHg 90%
    05:00 -14°C° 0 mm 5 mps 746 mmHg 90%
    06:00 -14°C° 0 mm 5 mps 746 mmHg 89%
    07:00 -14°C° 0 mm 5 mps 746 mmHg 89%
    08:00 -14°C° 0 mm 5 mps 746 mmHg 89%
    09:00 -14°C° 0.2 mm 5 mps 746 mmHg 88%
    10:00 -13°C° 0.2 mm 5 mps 746 mmHg 88%
    11:00 -13°C° 0.2 mm 5 mps 746 mmHg 88%
    12:00 -13°C° 0.3 mm 5 mps 746 mmHg 88%
    13:00 -13°C° 0.3 mm 5 mps 746 mmHg 89%
    14:00 -12°C° 0.3 mm 5 mps 745 mmHg 89%
    15:00 -11°C° 0.2 mm 4 mps 745 mmHg 90%
    16:00 -11°C° 0.2 mm 4 mps 745 mmHg 90%
    17:00 -11°C° 0.2 mm 4 mps 745 mmHg 91%
    18:00 -10°C° 0.4 mm 3 mps 745 mmHg 92%
    19:00 -10°C° 0.4 mm 3 mps 745 mmHg 93%
    20:00 -10°C° 0.4 mm 3 mps 744 mmHg 93%
    21:00 -9°C° 0.4 mm 2 mps 744 mmHg 94%
    22:00 -9°C° 0.4 mm 2 mps 744 mmHg 94%
    23:00 -8°C° 0.4 mm 1 mps 744 mmHg 94%

    Day after tomorrow, 26 January, Saturday

    Time Temperature Precipitation Wind Pressure Humidity
    00:00 -8°C° 0.1 mm 1 mps 744 mmHg 95%
    01:00 -8°C° 0.1 mm 1 mps 744 mmHg 95%
    02:00 -8°C° 0.1 mm 1 mps 743 mmHg 95%
    03:00 -8°C° 0 mm 1 mps 743 mmHg 95%
    04:00 -9°C° 0 mm 2 mps 743 mmHg 95%
    05:00 -9°C° 0 mm 2 mps 743 mmHg 95%
    06:00 -9°C° 0 mm 2 mps 742 mmHg 95%
    07:00 -9°C° 0 mm 2 mps 742 mmHg 94%
    08:00 -9°C° 0 mm 2 mps 742 mmHg 94%
    09:00 -9°C° 0 mm 2 mps 742 mmHg 93%
    10:00 -8°C° 0 mm 2 mps 742 mmHg 91%
    11:00 -8°C° 0 mm 3 mps 742 mmHg 90%
    12:00 -8°C° 0 mm 3 mps 741 mmHg 89%
    13:00 -7°C° 0 mm 3 mps 741 mmHg 88%
    14:00 -7°C° 0 mm 3 mps 740 mmHg 87%
    15:00 -7°C° 0.4 mm 3 mps 739 mmHg 90%
    16:00 -7°C° 0.4 mm 3 mps 739 mmHg 92%
    17:00 -8°C° 0.4 mm 3 mps 738 mmHg 95%
    18:00 -7°C° 0.5 mm 3 mps 738 mmHg 95%
    19:00 -7°C° 0.5 mm 3 mps 737 mmHg 94%
    20:00 -7°C° 0.5 mm 3 mps 737 mmHg 94%
    21:00 -6°C° 0.2 mm 2 mps 737 mmHg 95%
    22:00 -6°C° 0.2 mm 2 mps 736 mmHg 95%
    23:00 -4°C° 0.2 mm 1 mps 736 mmHg 96%

    27 January, Sunday

    Time Temperature Precipitation Wind Pressure Humidity
    00:00 -4°C° 0 mm 1 mps 736 mmHg 96%
    01:00 -6°C° 0 mm 1 mps 736 mmHg 96%
    02:00 -6°C° 0 mm 1 mps 737 mmHg 96%
    03:00 -7°C° 0 mm 1 mps 737 mmHg 96%
    04:00 -8°C° 0 mm 1 mps 737 mmHg 97%
    05:00 -10°C° 0 mm 2 mps 737 mmHg 97%
    06:00 -10°C° 0 mm 2 mps 738 mmHg 97%
    07:00 -9°C° 0 mm 1 mps 738 mmHg 97%
    08:00 -10°C° 0 mm 1 mps 738 mmHg 97%
    09:00 -9°C° 0 mm 1 mps 739 mmHg 95%
    10:00 -9°C° 0 mm 2 mps 739 mmHg 94%
    11:00 -8°C° 0 mm 2 mps 739 mmHg 93%
    12:00 -7°C° 0 mm 2 mps 739 mmHg 92%
    13:00 -6°C° 0 mm 2 mps 738 mmHg 92%
    14:00 -7°C° 0 mm 3 mps 738 mmHg 92%
    15:00 -6°C° 0.2 mm 3 mps 738 mmHg 93%
    16:00 -6°C° 0.2 mm 3 mps 737 mmHg 94%
    17:00 -6°C° 0.2 mm 3 mps 737 mmHg 95%
    18:00 -7°C° 0.2 mm 4 mps 737 mmHg 95%
    19:00 -5°C° 0.2 mm 4 mps 737 mmHg 96%
    20:00 -4°C° 0.2 mm 4 mps 737 mmHg 96%
    21:00 -4°C° 0.1 mm 4 mps 737 mmHg 95%
    22:00 -3°C° 0.1 mm 4 mps 736 mmHg 95%
    23:00 -3°C° 0.1 mm 4 mps 736 mmHg 94%

    28 January, Monday

    Time Temperature Precipitation Wind Pressure Humidity
    00:00 -4°C° 0 mm 4 mps 736 mmHg 94%
    01:00 -4°C° 0 mm 4 mps 736 mmHg 94%
    02:00 -5°C° 0 mm 3 mps 735 mmHg 94%
    03:00 -5°C° 0 mm 3 mps 735 mmHg 94%
    04:00 -5°C° 0 mm 3 mps 734 mmHg 93%
    05:00 -5°C° 0 mm 3 mps 734 mmHg 93%
    06:00 -5°C° 0 mm 4 mps 734 mmHg 93%
    07:00 -5°C° 0 mm 4 mps 734 mmHg 92%
    08:00 -4°C° 0 mm 4 mps 734 mmHg 92%
    09:00 -4°C° 0 mm 4 mps 734 mmHg 91%
    10:00 -3°C° 0 mm 4 mps 734 mmHg 91%
    11:00 -3°C° 0 mm 4 mps 734 mmHg 90%
    12:00 -3°C° 0 mm 4 mps 734 mmHg 90%
    13:00 -2°C° 0 mm 4 mps 734 mmHg 90%
    14:00 -2°C° 0 mm 4 mps 734 mmHg 91%
    15:00 -2°C° 0 mm 4 mps 734 mmHg 91%
    16:00 -3°C° 0 mm 4 mps 734 mmHg 91%
    17:00 -4°C° 0 mm 3 mps 734 mmHg 92%
    18:00 -4°C° 0 mm 3 mps 735 mmHg 92%
    19:00 -4°C° 0 mm 3 mps 735 mmHg 91%
    20:00 -5°C° 0 mm 4 mps 735 mmHg 91%
    21:00 -5°C° 0 mm 4 mps 735 mmHg 91%
    22:00 -5°C° 0 mm 3 mps 735 mmHg 91%
    23:00 -5°C° 0 mm 3 mps 735 mmHg 91%

    29 January, Tuesday

    Time Temperature Precipitation Wind Pressure Humidity
    00:00 -5°C° 0 mm 3 mps 735 mmHg 92%
    01:00 -6°C° 0 mm 3 mps 735 mmHg 92%
    02:00 -6°C° 0 mm 3 mps 736 mmHg 93%
    03:00 -6°C° 0 mm 3 mps 735 mmHg 93%
    04:00 -6°C° 0 mm 3 mps 735 mmHg 94%
    05:00 -5°C° 0 mm 2 mps 735 mmHg 94%
    06:00 -5°C° 0 mm 2 mps 736 mmHg 95%
    07:00 -5°C° 0 mm 2 mps 736 mmHg 95%
    08:00 -5°C° 0 mm 2 mps 736 mmHg 96%
    09:00 -2°C° 0.2 mm 1 mps 736 mmHg 95%
    10:00 -1°C° 0.2 mm 1 mps 736 mmHg 95%
    11:00 0°C° 0.2 mm 1 mps 736 mmHg 95%
    12:00 0°C° 0.2 mm 1 mps 736 mmHg 96%
    13:00 +1°C° 0.2 mm 1 mps 736 mmHg 97%
    14:00 +1°C° 0.2 mm 1 mps 736 mmHg 97%
    15:00 +1°C° 0.1 mm 1 mps 736 mmHg 97%
    16:00 0°C° 0.1 mm 1 mps 736 mmHg 97%
    17:00 0°C° 0.1 mm 1 mps 737 mmHg 97%
    18:00 0°C° 0 mm 1 mps 737 mmHg 97%
    19:00 -1°C° 0 mm 1 mps 737 mmHg 97%
    20:00 -1°C° 0 mm 1 mps 737 mmHg 97%
    21:00 -1°C° 0 mm 1 mps 737 mmHg 97%
    22:00 -1°C° 0 mm 1 mps 738 mmHg 96%
    23:00 -3°C° 0 mm 0 mps 738 mmHg 96%
    Show more